默认 日期 大小 文件数 浏览量 最新下载 xml
olympic磁力链接相关资源由用户搜索指令自动获取,结果来源于网络,本站不存储任何资料,亦不承担任何责任,请于24小时内删除,搜索到1343个磁力,用时1ms。
    ... ": 1450786816, "Strong As An Ox - Olympic Weightlifting Program - 2.vob": 1773692928 ... , "Strong As An Ox - Olympic Weightlifting Program - 3.vob": 1350311936 ... , "Strong As An Ox - Olympic Weightlifting Program - Manual.pdf": 538198}
创建时间: 2019-04-27 03:21:40 大小:4.26 GB 文件数量:4 热度:8 最近下载:2025-10-15 02:08:01
    ... System 2.0.png": 1371993, "Olympic Games 2016 - Rio 2016 - Opening ...
创建时间: 2019-04-27 13:34:03 大小:28.56 GB 文件数量:80 热度:12 最近下载:2024-12-26 04:32:02
    {"07 Deal.mp3": 15668538, "13 Drums -_.mp3": 15563567, "14 Space -_.mp3": 15170795, "05 Bird Song.mp3": 20920934, "01 Sugaree -_.mp3": 24373750, "19 Revolution.mp3": 8001648, "18 Good Lovin'.mp3": 12811619, "15 The Wheel -_.mp3": 10566621, "08 Touch Of ...
创建时间: 2019-04-27 22:08:52 大小:247.4 MB 文件数量:19 热度:6 最近下载:2024-12-25 19:43:02
    ... , "08 - Mayumi.mp3": 11349922, "07 - Olympic.mp3": 9330136, "06 - Athletic.mp3 ... with preferences.mp3": 13924582, "Astrocowboys - Olympic - cover.png": 674052}
创建时间: 2019-04-28 06:34:18 大小:85.45 MB 文件数量:11 热度:5 最近下载:2024-12-26 16:44:01
    ... .flac": 45407946, "bs Olympic Stadion First Night d2T05 - ... Backstreets.flac": 49047659, "bs Olympic Stadion First Night d2T09 - Stand ... Incorporated.flac": 43671320, "bs Olympic Stadion First Night d2T06 - ... flac": 42125621, "bs Olympic Stadion First Night d3t11- ...
创建时间: 2019-04-30 14:14:05 大小:1.38 GB 文件数量:41 热度:7 最近下载:2025-03-14 20:54:01
    {"Readme!.nfo": 540, "www.FENOPY.se.jpg": 71612, "Torrent downloaded from H33t.to.txt": 68, "London 2018 The Official Video Game of the Olympic.exe": 4575040}
创建时间: 2019-05-01 16:26:52 大小:4.43 MB 文件数量:4 热度:7 最近下载:2024-12-25 19:05:02
    {"Free Games.txt": 56, "The Most Trusted VPN.txt": 207, "Torrent Seed by www.Cyber-Planet.in.txt": 517, "Torrent Downloaded From ExtraTorrent.cc.txt": 351, "DaughterSwap 16 09 09 Maya Kendrick The Olympic Interchange XXX SD P2PAdult.mp4": 154685146}
创建时间: 2019-05-02 23:27:30 大小:147.52 MB 文件数量:5 热度:9 最近下载:2024-12-25 12:53:02
    {"20.02.2006_Team_K120.avi": 524294144, "12.02.2006_Individual_K90.avi": 471576576, "18.02.2006_Individual_K120.avi": 450467840}
创建时间: 2019-05-03 02:40:24 大小:1.35 GB 文件数量:3 热度:9 最近下载:2025-08-02 12:33:08
    {"Readme!.nfo": 540, "www.FENOPY.se.jpg": 71612, "Torrent downloaded from H33t.to.txt": 68, "London 2018 The Official Video Game of the Olympic.exe": 4575040}
创建时间: 2019-05-03 04:35:15 大小:4.43 MB 文件数量:4 热度:6 最近下载:2024-12-25 18:55:01
    {"Readme!.nfo": 540, "www.FENOPY.se.jpg": 71612, "Torrent downloaded from H33t.to.txt": 68, "London 2018 The Official Video Game of the Olympic.exe": 4575040}
创建时间: 2019-05-03 10:26:07 大小:4.43 MB 文件数量:4 热度:5 最近下载:2024-12-25 18:05:02
    {"03.Men's Team Final.30.07.2012": {"03.Addition - BBC 2 HD.ts": 1996160124, "02.Victory Ceremony.BBC 2 HD.ts": 1340956624, "01.Men's Team Final.BBC 2 HD.rus&eng.ts": 16421520444}, "04.Women's Team Final.31.07.2012": {"01.BBC Olym 1 HD.eng.ts": 12828502608 ...
创建时间: 2019-05-03 16:41:48 大小:170.63 GB 文件数量:31 热度:31 最近下载:2025-09-05 14:20:04
    {"Torrent downloaded from www.DNoid.me - Demonoid.txt": 56, "Muse - Live at Rome Olympic Stadium 2013 2160p UHDTV DD5.1 HEVC-BtttS.ts": 21844426504}
创建时间: 2019-05-03 18:30:00 大小:20.34 GB 文件数量:2 热度:16 最近下载:2025-09-05 14:26:02
    {"Readme!.nfo": 540, "www.FENOPY.se.jpg": 71612, "Torrent downloaded from H33t.to.txt": 68, "London 2018 The Official Video Game of the Olympic.exe": 4575040}
创建时间: 2019-05-04 18:34:54 大小:4.43 MB 文件数量:4 热度:7 最近下载:2024-12-26 07:30:05
    {"Readme!.nfo": 540, "www.FENOPY.se.jpg": 71612, "Torrent downloaded from H33t.to.txt": 68, "London 2018 The Official Video Game of the Olympic.exe": 4575040}
创建时间: 2019-05-04 20:39:41 大小:4.43 MB 文件数量:4 热度:7 最近下载:2025-01-08 03:42:04
    {"RARBG.txt": 30, "x-olympics1924-720p.mkv": 334939850, "x-olympics1924-720p.nfo": 441}
创建时间: 2019-05-07 09:50:09 大小:319.42 MB 文件数量:3 热度:11 最近下载:2025-09-18 18:42:09
    {"Readme!.nfo": 540, "www.FENOPY.se.jpg": 71612, "Torrent downloaded from H33t.to.txt": 68, "London 2018 The Official Video Game of the Olympic.exe": 4575040}
创建时间: 2019-05-09 01:10:37 大小:4.43 MB 文件数量:4 热度:5 最近下载:2025-01-03 04:35:06
    {"Readme!.nfo": 540, "www.FENOPY.se.jpg": 71612, "Torrent downloaded from H33t.to.txt": 68, "London 2018 The Official Video Game of the Olympic.exe": 4575040}
创建时间: 2019-05-09 16:26:35 大小:4.43 MB 文件数量:4 热度:6 最近下载:2025-01-02 19:50:02
    {"Readme!.nfo": 540, "www.FENOPY.se.jpg": 71612, "Torrent downloaded from H33t.to.txt": 68, "London 2018 The Official Video Game of the Olympic.exe": 4575040}
创建时间: 2019-05-10 02:03:38 大小:4.43 MB 文件数量:4 热度:7 最近下载:2025-01-09 07:35:05
    {"Olympic.nfo": 66, "Olympic Games London 2012 + Crack.zip": 4289729185}
创建时间: 2019-05-11 20:25:20 大小:4 GB 文件数量:2 热度:6 最近下载:2025-01-21 15:34:05
    {"Beijing 2008 Olympic Games Synchronized Swimming Team Event ... -decadence.tp": 2628668640, "Beijing 2008 Olympic Games Synchronized Swimming Team Event ...
创建时间: 2019-05-12 19:16:17 大小:6.2 GB 文件数量:2 热度:16 最近下载:2025-04-07 03:19:01